Regional Weather Roundup
Issued by NWS

Home | Current Version | Previous Version | Graphics & Text | Print | Product List | Glossary On
Versions: 1 2 3 4 5 6 7 8 9 10 11 12 13 14 15 16 17 18 19 20 21 22 23 24 25 26 27 28 29 30 31 32 33 34 35 36 37 38 39 40 41 42 43 44 45 46 47 48
000
ASUS45 KBOU 281307
RWRCO

WEATHER ROUNDUP FOR COLORADO
NATIONAL WEATHER SERVICE DENVER/BOULDER CO
600 AM MST WED JAN 28 2015

NOTE: "FAIR" INDICATES FEW OR NO CLOUDS BELOW 12000 FEET WITH NO
SIGNIFICANT WEATHER AND/OR OBSTRUCTIONS TO VISIBILITY.

COZ001>005-013-030-031-281400-
...NORTHWEST COLORADO...

CITY           SKY/WX    TMP DP  RH WIND       PRES   REMARKS
CRAIG          MOCLDY    32  31  96 SW5       30.21F WCI  27
HAYDEN         PTCLDY    34  28  80 CALM      30.21F
MEEKER         PTCLDY    38  29  70 SW7       30.23S
MOUNT WERNER   NOT AVBL
STEAMBOAT SPGS CLOUDY    32  29  87 E6        30.21F WCI  26
WALDEN         CLOUDY    32  28  86 SW15G24   30.18S WCI  22
$$

COZ006>008-011-281400-
...WEST CENTRAL VALLEYS...

CITY           SKY/WX    TMP DP  RH WIND       PRES   REMARKS
GRAND JUNCTION PTCLDY    25  24  96 CALM      30.25R
MONTROSE       PTCLDY    31  26  82 SE3       30.26F
EAGLE          PTCLDY    27  25  93 CALM      30.27R
RIFLE          CLEAR     25  22  88 SW5       30.26R WCI  19
DELTA          PTCLDY    31  26  81 CALM      30.26S
NUCLA          PTCLDY    34  30  86 E6        30.29S WCI  29
$$

COZ017>023-064>068-281400-
...SOUTHWEST COLORADO...

CITY           SKY/WX    TMP DP  RH WIND       PRES   REMARKS
DURANGO        CLEAR     28  26  92 NE5       30.27S WCI  23
CORTEZ         CLEAR     27  25  92 CALM      30.27F
PAGOSA SPRINGS PTCLDY    28  27  98 CALM      30.29F
TELLURIDE      NOT AVBL
WOLF CREEK PAS NOT AVBL
$$

COZ009-010-012-014-032>034-037-058>063-281400-
...CENTRAL COLORADO...

CITY           SKY/WX    TMP DP  RH WIND       PRES   REMARKS
ASPEN          PTCLDY    26  19  74 CALM      30.23R
BUENA VISTA    CLOUDY    40  19  44 NW10G16   30.19R
COPPER MTN     PTCLDY    25  14  63 MISG      30.24S
BERTHOUD PASS  FAIR      16  10  79 NW45G56   30.14R WCI  -8
COTTONWOOD PAS PTCLDY    36  18  48 W24G41    30.20R
GUNNISON       CLOUDY    12   7  79 CALM      30.31S
KREMMLING      PTCLDY    18  14  86 N6        30.22S WCI   9
LEADVILLE      PTCLDY    28  15  58 N12G18    30.23S WCI  18
MONARCH PASS   FOG       21  19  93 MISG      30.36S VSB<1/4
SALIDA         PTCLDY    43  20  40 SW12G21   30.24F
SUNLIGHT       PTCLDY    27  21  80 CALM        N/A
WILKERSON PASS PTCLDY    27  14  59 W16G29    30.19S WCI  14
$$

COZ069>075-281400-
...SAN LUIS VALLEY/SANGRE DE CRISTO MOUNTAINS...

CITY           SKY/WX    TMP DP  RH WIND       PRES   REMARKS
ALAMOSA        MOCLDY    14  11  87 SW5       30.25F WCI   6
LA VETA PASS   NOT AVBL
SAGUACHE       PTCLDY    30  23  74 NW8       30.26S WCI  23
$$

COZ035-036-038>040-281400-
...NORTHERN COLORADO FRONT RANGE...

CITY           SKY/WX    TMP DP  RH WIND       PRES   REMARKS
DENVER INTL AP MOCLDY    45  21  38 W12       30.02R
DMNS CITY PARK   N/A     51  19  27 W14G23    30.01S
AURORA         PTCLDY    41  22  47 SW15      30.03S
FRONT RANGE AP NOT AVBL
ERIE MUNI ARPT PTCLDY    43  20  39 CALM      30.00R
BOULDER MUN AP PTCLDY    50  21  32 SW9       30.00R
CENTENNIAL     MOCLDY    41  21  44 SW6       30.04R
BROOMFIELD     NOT AVBL
FORT COLLINS   MOCLDY    48  25  40 NW13      30.00R
LONGMONT       MOCLDY    50  21  32 W7        30.00S
$$

COZ041-046-047-076>085-087-088-281400-
...PIKES PEAK/PALMER DIVIDE AND SOUTHERN FOOTHILLS...

CITY           SKY/WX    TMP DP  RH WIND       PRES   REMARKS
COLO. SPRINGS  MOCLDY    50  19  29 NW17G25   30.05R
A. F. ACADEMY  MOCLDY    46  18  33 N8        30.08S
ELLICOTT       MOCLDY   N/A N/A N/A NW7       30.05R
FALCON         MOCLDY    45  18  34 W22G29    30.07R
FORT CARSON    MOCLDY    39  21  49 E5        30.03R
LIMON          CLOUDY    37  24  59 W12       30.02R
MONUMENT HILL  MOCLDY    37  19  48 N5        30.07S
TRINIDAD       CLOUDY    44  26  49 SW17      30.05R
$$

COZ042>045-048>051-090-091-281400-
...NORTHEAST COLORADO...

CITY           SKY/WX    TMP DP  RH WIND       PRES   REMARKS
GREELEY ARPT   CLOUDY    32  23  69 SE3       29.98R
AKRON          MOCLDY    39  29  67 W16       29.97R
BURLINGTON     MOCLDY    37  29  72 NW12      29.96R
WRAY           MOCLDY    37  31  79 W8        29.94S
STERLING       MOCLDY    34  32  93 S9        29.96R WCI  26
HOLYOKE        MOCLDY    52  32  46 NW13G20   29.92S
FORT MORGAN    MOCLDY    32  26  80 W3        30.00R
$$

COZ086-089-092>099-281400-
...SOUTHEAST COLORADO...

CITY           SKY/WX    TMP DP  RH WIND       PRES   REMARKS
PUEBLO         CLOUDY    54  22  28 NW30G38   29.98S
LA JUNTA       CLOUDY    46  28  49 W16       30.00R
LAMAR          CLOUDY    43  29  57 W8        29.97R
SPRINGFIELD      N/A     50  29  44 NW21G26   29.98R
$$


USA.gov is the U.S. government's official web portal to all federal, state and local government web resources and services.